Content
SEND FEEDBACK

Daily
Averages
Monthly
Summary
United States of America

PLYMOUTH, IOWA


Home > North America > United States > Iowa
Elevation: 1098 feet     Latitude: 43 09N     Longitude: 093 11W

WEATHER
 
SELECT A DAY
Number of Records: 214,733;   Date Range: 1/1/95 - 9/16/14
 
SHARE

PRINT THIS DATA

[ ← Previous Day ]
WEATHER ALMANAC - JANUARY 31, 2013
[ Next Day → ]
[ °C ]   °F
Weather ElementAverageHighLow
Temperature-0.3 °F6.8 °F (1:00 am)-7.1 °F (11:53 pm)
Dewpoint-8.5 °F-0.4 °F (1:00 am)-16.1 °F (11:53 pm)
Humidity68.4 %76 % (2:53 am)61 % (1:30 pm)
Barometer30.09 in30.38 in (11:53 pm)29.80 in (1:00 am)
Wind Speed23.5 mph33.4 mph (11:53 am)
Wind Gust40.3 mph (11:53 am)
Weather ElementAverage
Visibility8.2 mi
Wind DirectionWNW (306.2 °)

Weather ElementTotal
Precipitation---
Heating Degree Days65.2 (Base 65)
Averaged from 29 records on January 31, 2013
WEATHER CONDITIONS BREAKOUT
WIND DIRECTION BREAKOUT
WEATHER BY HOUR - JANUARY 31, 2013
[ °C ]   °F
Local TimeTemperatureDewpointHumidityBarometerVisibilityWind DirectionWind SpeedGust SpeedPrecipitationEventsConditions
12:53 AM6.1 °F-0.9 °F73 %29.86 in10.0 miWNW (300°)21.9 mphScattered Clouds
1:00 AM6.8 °F-0.4 °F72 %29.80 in10.0 miWNW (300°)20.7 mphMostly Cloudy
1:38 AM5.0 °F-2.2 °F72 %29.81 in10.0 miWNW (300°)20.7 mphOvercast
1:53 AM5.0 °F-2.0 °F73 %29.87 in10.0 miWNW (300°)23.0 mph28.8 mphOvercast
2:53 AM1.9 °F-4.0 °F76 %29.88 in10.0 miWNW (300°)19.6 mphClear
3:53 AM1.9 °F-5.1 °F72 %29.89 in10.0 miNW (310°)18.4 mphClear
4:53 AM1.9 °F-5.1 °F72 %29.92 in6.0 miWNW (300°)19.6 mph26.5 mphHaze
5:53 AM1.0 °F-6.0 °F72 %29.94 in8.0 miNW (310°)21.9 mphOvercast
6:53 AM-0.9 °F-8.0 °F72 %29.97 in8.0 miNW (310°)21.9 mphMostly Cloudy
7:53 AM-2.0 °F-9.0 °F72 %29.99 in10.0 miWNW (300°)19.6 mph27.6 mphClear
8:53 AM-2.0 °F-9.9 °F69 %30.04 in10.0 miWNW (300°)24.2 mph33.4 mphClear
9:53 AM0.0 °F-9.9 °F63 %30.06 in6.0 miNW (310°)26.5 mph38.0 mphHaze
10:37 AM-0.4 °F-9.4 °F66 %30.01 in5.0 miNW (310°)29.9 mph38.0 mph0.00 inMostly Cloudy
10:53 AM0.0 °F-9.0 °F66 %30.09 in9.0 miNW (320°)23.0 mph32.2 mph0.00 inMostly Cloudy
11:53 AM1.0 °F-9.0 °F63 %30.11 in7.0 miNW (310°)33.4 mph40.3 mphMostly Cloudy
12:53 PM0.0 °F-9.9 °F63 %30.13 in8.0 miNW (310°)27.6 mph36.8 mphOvercast
1:23 PM-0.4 °F-9.4 °F66 %30.07 in1.8 miWNW (300°)29.9 mph36.8 mph0.00 inOvercast
1:30 PM1.4 °F-9.4 °F61 %30.07 in3.0 miWNW (300°)27.6 mph35.7 mph0.00 inHaze
2:53 PM0.0 °F-9.0 °F66 %30.18 in5.0 miNW (310°)26.5 mph34.5 mphHaze
3:53 PM0.0 °F-9.9 °F63 %30.20 in7.0 miNW (310°)25.3 mph36.8 mphMostly Cloudy
4:53 PM-0.9 °F-9.0 °F69 %30.23 in5.0 miWNW (300°)24.2 mph33.4 mphHaze
5:36 PM-2.2 °F-11.2 °F66 %30.17 in10.0 miNW (310°)25.3 mph29.9 mphScattered Clouds
5:53 PM-2.2 °F-9.4 °F71 %30.17 in9.0 miNW (310°)24.2 mph28.8 mphPartly Cloudy
6:53 PM-2.9 °F-11.0 °F68 %30.29 in10.0 miNW (320°)26.5 mph32.2 mphClear
7:53 PM-4.0 °F-11.9 °F69 %30.31 in10.0 miNW (310°)21.9 mph32.2 mphClear
8:53 PM-5.1 °F-13.0 °F69 %30.34 in10.0 miNW (310°)20.7 mph28.8 mphClear
9:53 PM-6.0 °F-14.1 °F68 %30.35 in10.0 miNW (310°)20.7 mph28.8 mphClear
10:53 PM-6.0 °F-14.1 °F68 %30.37 in10.0 miWNW (300°)18.4 mphClear
11:53 PM-7.1 °F-16.1 °F65 %30.38 in10.0 miWNW (300°)18.4 mph24.2 mphClear
Hourly data recorded from KMCW, located miles away from Plymouth, Iowa







STORIES FROM OUR PARTNERS